This is the latest recevied weather packets stored in our database for station/object KD2VWU. If no packets are shown the sender has not sent any weather packets the latest 10 day(s).
| Time | Temp. | Humidity | Pressure | Rain* | Wind** | Luminosity | Snow |
|---|---|---|---|---|---|---|---|
| 1777526587 | 7.78° C | 99% | 1007 hPa | 0 mm | - | - | - |
| 1777526281 | 7.78° C | 99% | 1006.5 hPa | 1.78 mm | - | - | - |
| 1777525977 | 7.78° C | 99% | 1006.4 hPa | 1.78 mm | - | - | - |
| 1777525675 | 7.78° C | 99% | 1006.4 hPa | 1.27 mm | - | - | - |
| 1777525373 | 7.78° C | 99% | 1006.5 hPa | 1.27 mm | - | - | - |
| 1777525068 | 7.78° C | 99% | 1006.7 hPa | 1.78 mm | - | - | - |
| 1777524765 | 7.78° C | 99% | 1006.6 hPa | 3.05 mm | - | - | - |
| 1777524463 | 7.78° C | 99% | 1006.8 hPa | 3.05 mm | - | - | - |
| 1777524160 | 7.78° C | 99% | 1006.4 hPa | 3.05 mm | - | - | - |
| 1777523856 | 7.78° C | 99% | 1007.2 hPa | 4.32 mm | - | - | - |
| 1777523553 | 7.78° C | 99% | 1006.8 hPa | 4.83 mm | - | - | - |
| 1777523249 | 7.78° C | 99% | 1007 hPa | 4.83 mm | - | - | - |
| 1777522944 | 7.78° C | 99% | 1007.1 hPa | 6.1 mm | - | - | - |
| 1777522642 | 7.78° C | 99% | 1007.1 hPa | 4.83 mm | - | - | - |
| 1777522338 | 8.33° C | 99% | 1007.1 hPa | 8.89 mm | - | - | - |
| 1777522035 | 8.33° C | 99% | 1007.3 hPa | 7.11 mm | - | - | - |
| 1777521732 | 8.33° C | 99% | 1007.3 hPa | 3.05 mm | - | - | - |
| 1777521429 | 8.33° C | 99% | 1007.4 hPa | 3.05 mm | - | - | - |
| 1777521126 | 8.33° C | 99% | 1007.4 hPa | 3.05 mm | - | - | - |
| 1777520824 | 8.33° C | 99% | 1007.3 hPa | 3.56 mm | - | - | - |
| 1777520520 | 8.33° C | 99% | 1007.4 hPa | 3.05 mm | - | - | - |
| 1777520216 | 8.33° C | 99% | 1007.5 hPa | 3.05 mm | - | - | - |
| 1777519915 | 8.33° C | 99% | 1007.4 hPa | 4.83 mm | - | - | - |
| 1777519612 | 8.33° C | 99% | 1007.5 hPa | 6.1 mm | - | - | - |
| 1777519307 | 8.33° C | 99% | 1007.4 hPa | 4.32 mm | - | - | - |
* Rain latest hour (hover to see other rain measurements)
** Current wind speed in m/s (hover to see current wind gust speed)